period_start,C,m1,H,J0,J1,J2,J3,J4,J5,JA,JB,JC,JD,JJ,JK,JN,#
2015-01-23 00:04:54,0.30,9.12,0.00,23.74,27.55,30.24,4.81,28.43,1010.27,2026.97,1288.17,1665.51,1807.10,350.98,345.62,30.46,0000 0000 0000 0000 000000
2015-01-23 00:09:55,0.23,9.13,0.00,23.75,27.55,30.22,4.82,28.48,1010.28,2026.98,1287.32,1664.89,1806.29,350.35,344.99,30.49,0000 0000 0000 0000 000000
2015-01-23 00:14:57,0.28,9.14,0.00,23.76,27.55,30.24,4.75,28.38,1010.28,2026.97,1286.50,1664.06,1805.45,350.21,344.87,30.52,0000 0000 0000 0000 000000
2015-01-23 00:19:58,0.26,9.14,0.00,23.75,27.55,30.20,4.68,28.34,1010.29,2026.93,1285.65,1663.31,1804.66,349.88,344.51,30.55,0000 0000 0000 0000 000000
2015-01-23 00:24:59,0.22,9.15,0.00,23.77,27.55,30.20,4.76,28.43,1010.30,2026.91,1284.71,1662.74,1803.86,350.23,344.94,30.58,0000 0000 0000 0000 000000
2015-01-23 00:30:00,0.32,9.16,0.00,23.75,27.55,30.20,4.80,28.32,1010.27,2026.93,1283.56,1661.92,1802.95,350.61,345.17,30.61,0000 0000 0000 0000 000000
2015-01-23 00:35:02,0.33,9.17,0.00,23.71,27.55,30.19,4.75,28.18,1010.27,2026.92,1282.35,1661.01,1802.01,350.21,345.00,30.64,0000 0000 0000 0000 000000
2015-01-23 00:40:03,0.32,9.18,0.00,23.71,27.55,30.18,4.82,28.40,1010.28,2026.96,1281.21,1660.15,1801.11,350.59,345.27,30.67,0000 0000 0000 0000 000000
2015-01-23 00:45:04,0.29,9.19,0.00,23.71,27.55,30.16,4.76,28.27,1010.27,2026.95,1280.39,1659.48,1800.28,350.02,344.49,30.70,0000 0000 0000 0000 000000
2015-01-23 00:50:05,0.23,9.19,0.00,23.73,27.55,30.18,4.71,28.42,1010.27,2026.95,1279.53,1658.76,1799.45,349.75,344.41,30.73,0000 0000 0000 0000 000000
2015-01-23 00:55:07,0.27,9.20,0.00,23.73,27.55,30.18,4.77,28.43,1010.27,2026.95,1278.56,1657.98,1798.64,350.00,344.51,30.76,0000 0000 0000 0000 000000
2015-01-23 01:00:08,0.31,9.21,0.00,23.69,27.55,30.23,4.76,28.40,1010.27,2026.95,1277.47,1657.14,1797.78,350.10,344.97,30.79,0000 0000 0000 0000 000000
2015-01-23 01:05:09,0.25,9.22,0.00,23.70,27.55,30.18,4.78,28.38,1010.27,2026.89,1276.65,1656.34,1796.95,349.84,344.77,30.81,0000 0000 0000 0000 000000
2015-01-23 01:10:10,0.21,9.23,0.00,23.72,27.55,30.18,4.81,28.33,1010.27,2026.95,1275.85,1655.74,1796.07,350.59,345.53,30.84,0000 0000 0000 0000 000000
2015-01-23 01:15:12,0.30,9.24,0.00,23.70,27.55,30.16,4.67,28.14,1010.28,2026.93,1274.87,1654.88,1795.12,349.99,344.72,30.87,0000 0000 0000 0000 000000
2015-01-23 01:20:13,0.33,9.25,0.00,23.70,27.55,30.19,4.73,28.48,1010.27,2026.92,1273.76,1654.02,1794.25,349.91,344.52,30.90,0000 0000 0000 0000 000000
2015-01-23 01:25:14,0.35,9.26,0.00,23.71,27.55,30.17,4.73,28.43,1010.27,2026.91,1272.60,1653.14,1793.27,350.06,344.65,30.93,0000 0000 0000 0000 000000
2015-01-23 01:30:15,0.25,9.27,0.00,23.74,27.55,30.15,4.72,28.42,1010.28,2026.79,1271.61,1652.31,1792.37,349.48,344.28,30.96,0000 0000 0000 0000 000000
2015-01-23 01:35:17,0.36,9.27,0.00,23.70,27.55,30.17,4.77,28.27,1010.27,2026.76,1270.50,1651.49,1791.54,350.18,344.73,30.99,0000 0000 0000 0000 000000
2015-01-23 01:40:18,0.24,9.28,0.00,23.70,27.55,30.19,4.69,28.48,1010.27,2026.60,1269.30,1650.60,1790.62,349.57,344.30,31.02,0000 0000 0000 0000 000000
2015-01-23 01:45:19,0.26,9.29,0.00,23.70,27.55,30.14,4.69,28.39,1010.27,2026.56,1268.17,1649.83,1789.72,350.00,344.78,31.05,0000 0000 0000 0000 000000
2015-01-23 01:50:21,0.25,9.30,0.00,23.69,27.55,30.14,4.82,28.62,1010.27,2026.57,1267.23,1649.05,1788.96,350.42,345.11,31.08,0000 0000 0000 0000 000000
2015-01-23 01:55:22,0.27,9.31,0.00,23.72,27.55,30.12,4.71,28.41,1010.27,2026.39,1266.50,1648.32,1788.07,350.16,344.67,31.11,0000 0000 0000 0000 000000
2015-01-23 02:00:23,0.30,9.31,0.00,23.74,27.55,30.12,4.70,28.23,1010.27,2026.32,1265.49,1647.59,1787.17,349.72,344.55,31.14,0000 0000 0000 0000 000000
2015-01-23 02:05:24,0.23,9.32,0.00,23.71,27.55,30.13,4.81,28.32,1010.27,2026.24,1264.49,1646.83,1786.28,350.67,345.34,31.17,0000 0000 0000 0000 000000
2015-01-23 02:10:25,0.26,9.33,0.00,23.72,27.55,30.14,4.71,28.32,1010.27,2026.17,1263.64,1645.99,1785.38,350.01,344.72,31.20,0000 0000 0000 0000 000000
2015-01-23 02:15:27,0.31,9.34,0.00,23.72,27.55,30.15,4.73,28.37,1010.27,2026.07,1262.50,1645.11,1784.49,349.85,344.54,31.22,0000 0000 0000 0000 000000
2015-01-23 02:20:28,0.34,9.35,0.00,23.74,27.55,30.14,4.79,28.34,1010.27,2026.07,1261.37,1644.21,1783.55,349.96,344.50,31.25,0000 0000 0000 0000 000000
2015-01-23 02:25:29,0.31,9.36,0.00,23.74,27.55,30.17,4.80,28.38,1010.27,2026.06,1260.32,1643.44,1782.59,350.16,344.68,31.28,0000 0000 0000 0000 000000
2015-01-23 02:30:31,0.32,9.37,0.00,23.72,27.55,30.15,4.79,28.56,1010.27,2026.04,1259.18,1642.56,1781.63,349.84,344.70,31.31,0000 0000 0000 0000 000000
2015-01-23 02:35:32,0.34,9.38,0.00,23.72,27.56,30.17,4.78,28.34,1010.27,2026.02,1257.98,1641.63,1780.61,349.79,344.37,31.34,0000 0000 0000 0000 000000
2015-01-23 02:40:33,0.37,9.39,0.00,23.72,27.56,30.16,4.71,28.34,1010.27,2026.02,1256.72,1640.73,1779.64,349.71,344.44,31.37,0000 0000 0000 0000 000000
2015-01-23 02:45:35,0.29,9.40,0.00,23.74,27.57,30.17,4.74,28.30,1010.27,2026.02,1255.64,1639.90,1778.68,350.12,344.66,31.40,0000 0000 0000 0000 000000
2015-01-23 02:50:36,0.34,9.41,0.00,23.73,27.57,30.16,4.81,28.49,1010.27,2026.00,1254.45,1638.99,1777.73,349.92,344.59,31.43,0000 0000 0000 0000 000000
2015-01-23 02:55:37,0.31,9.42,0.00,23.74,27.57,30.17,4.70,28.37,1010.27,2026.00,1253.40,1638.08,1776.82,349.30,344.36,31.46,0000 0000 0000 0000 000000
2015-01-23 03:00:38,0.33,9.43,0.00,23.74,27.57,30.16,4.75,28.36,1010.27,2026.00,1252.33,1637.26,1775.85,349.97,344.58,31.49,0000 0000 0000 0000 000000
2015-01-23 03:05:40,0.32,9.44,0.00,23.72,27.57,30.17,4.78,28.49,1010.26,2026.00,1251.18,1636.32,1774.90,350.17,345.01,31.52,0000 0000 0000 0000 000000
2015-01-23 03:10:41,0.32,9.44,0.00,23.72,27.57,30.15,4.73,28.33,1010.27,2026.00,1250.00,1635.54,1773.95,350.26,345.04,31.55,0000 0000 0000 0000 000000
2015-01-23 03:15:42,0.37,9.45,0.00,23.71,27.57,30.17,4.81,28.57,1010.27,2026.00,1248.80,1634.64,1772.97,350.40,345.12,31.58,0000 0000 0000 0000 000000
2015-01-23 03:20:43,0.28,9.46,0.00,23.69,27.57,30.19,4.79,28.48,1010.27,2026.00,1247.78,1633.77,1772.01,350.29,344.99,31.61,0000 0000 0000 0000 000000
2015-01-23 03:25:45,0.33,9.47,0.00,23.72,27.57,30.14,4.68,28.38,1010.15,2026.00,1246.65,1632.96,1771.08,350.08,344.72,31.63,0000 0000 0000 0000 000000
2015-01-23 03:30:46,0.32,9.48,0.00,23.72,27.57,30.19,4.79,28.43,1009.97,2026.00,1245.66,1632.10,1770.13,349.63,344.29,31.66,0000 0000 0000 0000 000000
2015-01-23 03:35:47,0.36,9.49,0.00,23.70,27.57,30.16,4.73,28.32,1009.91,2026.00,1244.43,1631.21,1769.12,350.13,344.52,31.69,0000 0000 0000 0000 000000
2015-01-23 03:40:48,0.34,9.50,0.00,23.72,27.57,30.15,4.75,28.32,1010.02,2026.00,1243.42,1630.28,1768.18,349.45,344.07,31.72,0000 0000 0000 0000 000000
2015-01-23 03:45:50,0.36,9.51,0.00,23.73,27.57,30.17,4.81,28.44,1010.15,2026.00,1242.05,1629.40,1767.19,350.25,344.73,31.75,0000 0000 0000 0000 000000
2015-01-23 03:50:51,0.42,9.53,0.00,23.74,27.57,30.17,4.75,28.40,1010.24,2026.00,1240.70,1628.37,1766.09,349.90,344.37,31.78,0000 0000 0000 0000 000000
2015-01-23 03:55:52,0.38,9.54,0.00,23.76,27.57,30.17,4.75,28.28,1010.24,2026.00,1239.44,1627.39,1764.98,350.01,344.53,31.81,0000 0000 0000 0000 000000
2015-01-23 04:00:53,0.36,9.55,0.00,23.72,27.58,30.18,4.74,28.49,1010.08,2026.00,1238.12,1626.36,1763.87,350.02,344.47,31.84,0000 0000 0000 0000 000000
2015-01-23 04:05:55,0.46,9.56,0.00,23.72,27.59,30.16,4.80,28.48,1010.04,2026.00,1236.68,1625.31,1762.71,349.97,344.53,31.87,0000 0000 0000 0000 000000
2015-01-23 04:10:56,0.44,9.57,0.00,23.75,27.60,30.17,4.72,28.42,1009.93,2026.00,1235.05,1624.11,1761.47,349.82,344.51,31.90,0000 0000 0000 0000 000000
2015-01-23 04:15:58,0.40,9.59,0.00,23.70,27.60,30.21,4.82,28.55,1009.81,2026.00,1233.71,1622.96,1760.26,349.77,344.37,31.93,0000 0000 0000 0000 000000
2015-01-23 04:20:59,0.49,9.60,0.00,23.71,27.60,30.18,4.76,28.57,1009.86,2025.98,1232.20,1621.78,1758.92,350.30,344.90,31.96,0000 0000 0000 0000 000000
2015-01-23 04:26:00,0.52,9.61,0.00,23.72,27.60,30.20,4.72,28.38,1009.85,2025.99,1230.45,1620.52,1757.55,349.59,344.16,31.99,0000 0000 0000 0000 000000
2015-01-23 04:31:01,0.47,9.63,0.00,23.70,27.60,30.21,4.80,28.54,1009.90,2025.99,1228.78,1619.30,1756.15,350.45,344.81,32.02,0000 0000 0000 0000 000000
2015-01-23 04:36:02,0.49,9.64,0.00,23.70,27.61,30.21,4.76,28.32,1009.91,2025.97,1227.15,1617.99,1754.72,350.09,344.89,32.04,0000 0000 0000 0000 000000
2015-01-23 04:41:03,0.49,9.66,0.00,23.71,27.61,30.20,4.78,28.41,1009.82,2025.97,1225.46,1616.79,1753.50,350.37,344.91,32.07,0000 0000 0000 0000 000000
2015-01-23 04:46:05,0.32,9.67,0.00,23.72,27.62,30.21,4.73,28.35,1009.81,2025.96,1224.27,1615.84,1752.46,349.83,344.36,32.10,0000 0000 0000 0000 000000
2015-01-23 04:51:06,0.42,9.68,0.00,23.72,27.62,30.22,4.74,28.29,1009.83,2025.97,1222.89,1614.80,1751.37,349.90,344.38,32.13,0000 0000 0000 0000 000000
2015-01-23 04:56:07,0.42,9.69,0.00,23.69,27.62,30.24,4.75,28.36,1009.81,2025.98,1221.60,1613.77,1750.15,350.65,344.99,32.16,0000 0000 0000 0000 000000
2015-01-23 05:01:09,0.36,9.71,0.00,23.69,27.62,30.24,4.73,28.25,1009.79,2025.96,1220.39,1612.79,1748.99,349.95,344.45,32.19,0000 0000 0000 0000 000000
2015-01-23 05:06:10,0.51,9.72,0.00,23.71,27.62,30.23,4.72,28.25,1009.78,2025.96,1218.76,1611.65,1747.82,349.57,344.10,32.22,0000 0000 0000 0000 000000
2015-01-23 05:11:11,0.38,9.73,0.00,23.69,27.62,30.24,4.70,28.45,1009.78,2025.95,1217.39,1610.66,1746.72,349.38,343.85,32.25,0000 0000 0000 0000 000000
2015-01-23 05:16:13,0.33,9.74,0.00,23.69,27.62,30.22,4.63,28.15,1009.79,2025.96,1216.17,1609.74,1745.75,349.33,343.90,32.28,0000 0000 0000 0000 000000
2015-01-23 05:21:14,0.31,9.75,0.00,23.67,27.63,30.23,4.63,28.35,1009.79,2025.97,1215.12,1608.86,1744.78,349.67,344.10,32.31,0000 0000 0000 0000 000000
2015-01-23 05:26:15,0.36,9.76,0.00,23.68,27.64,30.24,4.73,28.41,1009.79,2025.94,1214.18,1607.90,1743.72,349.89,344.43,32.34,0000 0000 0000 0000 000000
2015-01-23 05:31:16,0.34,9.77,0.00,23.69,27.64,30.24,4.61,28.23,1009.79,2025.92,1212.93,1606.98,1742.69,349.06,343.80,32.37,0000 0000 0000 0000 000000
2015-01-23 05:36:18,0.47,9.78,0.00,23.69,27.65,30.25,4.72,28.40,1009.78,2025.91,1211.63,1605.92,1741.56,349.23,343.69,32.40,0000 0000 0000 0000 000000
2015-01-23 05:41:19,0.29,9.80,0.00,23.65,27.65,30.23,4.75,28.44,1009.78,2025.66,1210.23,1604.87,1740.42,349.88,344.52,32.43,0000 0000 0000 0000 000000
2015-01-23 05:46:20,0.35,9.80,0.00,23.66,27.65,30.26,4.84,28.46,1009.78,2025.54,1209.27,1604.00,1739.41,350.35,345.03,32.45,0000 0000 0000 0000 000000
2015-01-23 05:51:21,0.32,9.81,0.00,23.69,27.65,30.27,4.80,28.36,1009.78,2025.50,1208.07,1603.10,1738.48,349.94,344.54,32.48,0000 0000 0000 0000 000000
2015-01-23 05:56:22,0.39,9.82,0.00,23.66,27.65,30.26,4.81,28.63,1009.74,2025.36,1206.70,1602.15,1737.44,350.27,345.03,32.51,0000 0000 0000 0000 000000
2015-01-23 06:01:24,0.39,9.84,0.00,23.67,27.65,30.26,4.86,28.61,1009.64,2025.37,1205.53,1601.23,1736.44,350.99,345.59,32.54,0000 0000 0000 0000 000000
2015-01-23 06:06:25,0.43,9.85,0.00,23.66,27.65,30.27,4.76,28.47,1009.52,2025.61,1204.35,1600.31,1735.48,350.09,344.58,32.57,0000 0000 0000 0000 000000
2015-01-23 06:11:26,0.25,9.86,0.00,23.67,27.66,30.24,4.75,28.43,1009.38,2025.37,1203.29,1599.45,1734.44,350.58,344.94,32.60,0000 0000 0000 0000 000000
2015-01-23 06:16:27,0.31,9.87,0.00,23.68,27.67,30.26,4.77,28.48,1009.38,2025.23,1202.02,1598.71,1733.44,350.35,344.45,32.63,0000 0000 0000 0000 000000
2015-01-23 06:21:28,0.45,9.88,0.00,23.65,27.67,30.26,4.75,28.38,1009.35,2025.42,1200.78,1597.81,1732.46,350.21,344.58,32.66,0000 0000 0000 0000 000000
2015-01-23 06:26:29,0.32,9.89,0.00,23.64,27.67,30.27,4.82,28.61,1009.33,2025.37,1199.56,1596.87,1731.48,350.65,345.13,32.69,0000 0000 0000 0000 000000
2015-01-23 06:31:31,0.37,9.90,0.00,23.69,27.67,30.27,4.70,28.45,1009.35,2025.29,1198.31,1595.94,1730.41,350.14,344.51,32.72,0000 0000 0000 0000 000000
2015-01-23 06:36:32,0.36,9.91,0.00,23.66,27.67,30.29,4.75,28.33,1009.43,2025.41,1197.15,1594.99,1729.44,349.53,344.25,32.75,0000 0000 0000 0000 000000
2015-01-23 06:41:33,0.33,9.92,0.00,23.65,27.67,30.28,4.72,28.38,1009.53,2025.18,1195.90,1594.05,1728.42,349.79,344.38,32.78,0000 0000 0000 0000 000000
2015-01-23 06:46:34,0.40,9.93,0.00,23.68,27.67,30.29,4.67,28.22,1009.55,2025.28,1194.79,1593.13,1727.54,349.80,344.24,32.81,0000 0000 0000 0000 000000
2015-01-23 06:51:36,0.26,9.94,0.00,23.67,27.69,30.28,4.62,28.26,1009.39,2025.11,1193.84,1592.37,1726.63,349.33,343.91,32.84,0000 0000 0000 0000 000000
2015-01-23 06:56:37,0.43,9.95,0.00,23.66,27.70,30.28,4.78,28.48,1009.54,2025.11,1192.64,1591.42,1725.66,349.68,344.11,32.87,0000 0000 0000 0000 000000
2015-01-23 07:01:38,0.32,9.96,0.00,23.68,27.70,30.28,4.72,28.41,1009.49,2025.05,1191.56,1590.50,1724.66,350.18,344.61,32.89,0000 0000 0000 0000 000000
2015-01-23 07:06:39,0.36,9.97,0.00,23.64,27.70,30.29,4.82,28.51,1009.34,2025.02,1190.33,1589.56,1723.62,349.78,343.86,32.92,0000 0000 0000 0000 000000
2015-01-23 07:11:41,0.37,9.98,0.00,23.67,27.70,30.31,4.75,28.39,1009.35,2025.04,1189.09,1588.64,1722.61,350.33,344.74,32.95,0000 0000 0000 0000 000000
2015-01-23 07:16:42,0.36,9.99,0.00,23.68,27.70,30.29,4.75,28.16,1009.38,2025.03,1187.87,1587.73,1721.59,350.05,344.50,32.98,0000 0000 0000 0000 000000
2015-01-23 07:21:43,0.53,10.01,0.00,23.63,27.72,30.32,4.68,28.23,1009.33,2025.01,1186.27,1586.47,1720.27,349.96,344.14,33.01,0000 0000 0000 0000 000000
2015-01-23 07:26:45,0.51,10.02,0.00,23.64,27.72,30.31,4.82,28.43,1009.31,2025.02,1184.66,1585.23,1718.85,350.29,344.73,33.04,0000 0000 0000 0000 000000
2015-01-23 07:31:46,0.40,10.04,0.00,23.66,27.72,30.32,4.82,28.52,1009.29,2025.00,1183.27,1584.08,1717.56,350.74,345.18,33.07,0000 0000 0000 0000 000000
2015-01-23 07:36:47,0.36,10.05,0.00,23.66,27.72,30.31,4.74,28.40,1009.29,2025.00,1182.11,1583.18,1716.58,349.83,344.15,33.10,0000 0000 0000 0000 000000
2015-01-23 07:41:49,0.38,10.06,0.00,23.62,27.72,30.32,4.72,28.56,1009.29,2025.00,1180.89,1582.21,1715.58,349.88,344.29,33.13,0000 0000 0000 0000 000000
2015-01-23 07:46:50,0.33,10.07,0.00,23.59,27.72,30.34,4.72,28.48,1009.29,2025.00,1179.84,1581.44,1714.76,349.65,344.10,33.16,0000 0000 0000 0000 000000
2015-01-23 07:51:51,0.40,10.08,0.00,23.61,27.72,30.32,4.79,28.57,1009.29,2025.00,1178.63,1580.53,1713.81,350.49,344.99,33.19,0000 0000 0000 0000 000000
2015-01-23 07:56:52,0.38,10.09,0.00,23.62,27.72,30.32,4.79,28.29,1009.28,2025.00,1177.37,1579.66,1712.77,350.29,344.69,33.22,0000 0000 0000 0000 000000
2015-01-23 08:01:53,0.42,10.10,0.00,23.62,27.72,30.30,4.68,28.23,1009.29,2025.00,1175.97,1578.61,1711.72,349.84,344.30,33.25,0000 0000 0000 0000 000000
2015-01-23 08:06:55,0.48,10.11,0.00,23.62,27.73,30.31,4.69,28.32,1009.26,2025.00,1174.62,1577.44,1710.44,349.93,344.48,33.28,0000 0000 0000 0000 000000
2015-01-23 08:11:56,0.35,10.13,0.00,23.60,27.74,30.32,4.78,28.49,1009.28,2025.00,1173.52,1576.53,1709.31,349.62,343.96,33.30,0000 0000 0000 0000 000000
2015-01-23 08:16:57,0.34,10.14,0.00,23.61,27.74,30.31,4.77,28.43,1009.28,2025.00,1172.39,1575.69,1708.37,350.46,344.96,33.33,0000 0000 0000 0000 000000
2015-01-23 08:21:58,0.39,10.15,0.00,23.64,27.75,30.30,4.71,28.42,1009.28,2025.00,1171.10,1574.68,1707.28,349.89,344.19,33.36,0000 0000 0000 0000 000000
2015-01-23 08:26:59,0.42,10.16,0.00,23.62,27.75,30.34,4.80,28.43,1009.27,2024.99,1169.80,1573.64,1706.23,350.53,345.07,33.39,0000 0000 0000 0000 000000
2015-01-23 08:32:01,0.41,10.17,0.00,23.63,27.75,30.34,4.78,28.41,1009.27,2024.99,1168.57,1572.68,1705.18,350.23,344.74,33.42,0000 0000 0000 0000 000000
2015-01-23 08:37:02,0.40,10.19,0.00,23.65,27.75,30.33,4.67,28.34,1009.15,2024.99,1167.22,1571.68,1704.08,349.14,343.77,33.45,0000 0000 0000 0000 000000
2015-01-23 08:42:03,0.43,10.20,0.00,23.61,27.75,30.36,4.70,28.27,1009.10,2024.97,1165.87,1570.60,1702.94,349.93,344.27,33.48,0000 0000 0000 0000 000000
2015-01-23 08:47:05,0.41,10.21,0.00,23.62,27.77,30.36,4.72,28.28,1009.21,2024.98,1164.63,1569.67,1701.89,349.97,344.41,33.51,0000 0000 0000 0000 000000
2015-01-23 08:52:06,0.43,10.22,0.00,23.62,27.77,30.37,4.75,28.27,1008.96,2024.98,1163.25,1568.65,1700.76,349.73,344.20,33.54,0000 0000 0000 0000 000000
2015-01-23 08:57:07,0.50,10.24,0.00,23.63,27.77,30.37,4.75,28.29,1009.05,2024.98,1161.76,1567.56,1699.57,350.36,344.98,33.57,0000 0000 0000 0000 000000
2015-01-23 09:02:08,0.44,10.25,0.00,23.59,27.77,30.38,4.73,28.40,1008.89,2024.99,1160.27,1566.42,1698.44,350.11,344.25,33.60,0000 0000 0000 0000 000000
2015-01-23 09:07:09,0.42,10.26,0.00,23.61,27.78,30.39,4.71,28.38,1008.85,2024.97,1158.88,1565.34,1697.29,349.87,344.18,33.63,0000 0000 0000 0000 000000
2015-01-23 09:12:11,0.38,10.28,0.00,23.63,27.80,30.39,4.70,28.38,1008.93,2024.98,1157.81,1564.40,1696.25,349.39,343.90,33.66,0000 0000 0000 0000 000000
2015-01-23 09:17:12,0.47,10.29,0.00,23.61,27.80,30.41,4.77,28.43,1008.92,2024.97,1156.41,1563.37,1695.01,349.76,344.31,33.69,0000 0000 0000 0000 000000
2015-01-23 09:22:13,0.55,10.31,0.00,23.59,27.80,30.43,4.78,28.47,1008.89,2024.93,1154.76,1562.02,1693.63,349.81,344.29,33.71,0000 0000 0000 0000 000000
2015-01-23 09:27:15,0.52,10.32,0.00,23.59,27.80,30.44,4.79,28.45,1008.82,2024.87,1153.11,1560.74,1692.27,350.65,344.97,33.74,0000 0000 0000 0000 000000
2015-01-23 09:32:16,0.54,10.34,0.00,23.61,27.80,30.41,4.67,28.53,1008.81,2024.91,1151.46,1559.52,1690.88,349.61,344.07,33.77,0000 0000 0000 0000 000000
2015-01-23 09:37:17,0.53,10.35,0.00,23.65,27.80,30.42,4.83,28.62,1008.81,2024.96,1149.90,1558.31,1689.52,350.67,344.92,33.80,0000 0000 0000 0000 000000
2015-01-23 09:42:18,0.41,10.37,0.00,23.58,27.81,30.43,4.64,28.40,1008.80,2024.79,1148.33,1556.99,1688.18,349.60,343.78,33.83,0000 0000 0000 0000 000000
2015-01-23 09:47:20,0.57,10.38,0.00,23.60,27.82,30.43,4.73,28.39,1008.80,2024.74,1146.72,1555.77,1686.82,349.63,344.05,33.86,0000 0000 0000 0000 000000
2015-01-23 09:52:21,0.48,10.40,0.00,23.63,27.82,30.42,4.71,28.34,1008.80,2024.62,1145.11,1554.54,1685.48,349.83,344.04,33.89,0000 0000 0000 0000 000000
2015-01-23 09:57:22,0.47,10.41,0.23,23.58,27.82,30.46,4.72,28.42,1008.80,2024.44,1143.43,1553.28,1684.11,349.97,344.16,33.92,0000 0000 0000 0000 000000
2015-01-23 10:02:24,0.57,10.43,1.00,23.62,27.82,30.45,4.78,28.64,1008.80,2024.45,1141.71,1551.97,1682.66,350.00,344.23,33.95,0000 0000 0000 0000 000000
2015-01-23 10:07:25,0.56,10.44,1.00,23.62,27.83,30.46,4.68,28.39,1008.80,2024.32,1139.92,1550.63,1681.23,349.39,343.69,33.98,0000 0000 0000 0000 000000
2015-01-23 10:12:26,0.52,10.46,1.00,23.59,27.84,30.46,4.75,28.50,1008.80,2024.26,1138.25,1549.35,1679.81,350.02,344.22,34.01,0000 0000 0000 0000 000000
2015-01-23 10:17:27,0.52,10.48,1.00,23.53,27.85,30.48,4.74,28.55,1008.79,2024.19,1136.63,1548.11,1678.50,349.97,344.37,34.04,0000 0000 0000 0000 000000
2015-01-23 10:22:29,0.56,10.49,1.00,23.59,27.85,30.50,4.75,28.57,1008.76,2024.08,1134.95,1546.81,1677.07,349.63,344.00,34.07,0000 0000 0000 0000 000000
2015-01-23 10:27:30,0.57,10.51,1.00,23.64,27.85,30.48,4.74,28.49,1008.80,2024.08,1133.25,1545.51,1675.63,350.28,344.55,34.10,0000 0000 0000 0000 000000
2015-01-23 10:32:31,0.62,10.52,1.00,23.53,27.85,30.49,4.70,28.43,1008.78,2024.05,1131.32,1544.05,1674.13,349.44,343.92,34.13,0000 0000 0000 0000 000000
2015-01-23 10:37:32,0.72,10.54,1.00,23.59,27.85,30.49,4.75,28.69,1008.78,2024.06,1129.17,1542.45,1672.46,350.73,345.06,34.15,0000 0000 0000 0000 000000
2015-01-23 10:42:33,0.72,10.57,1.00,23.63,27.85,30.51,4.73,28.48,1008.80,2024.05,1127.03,1540.79,1670.68,350.66,344.93,34.18,0000 0000 0000 0000 000000
2015-01-23 10:47:35,0.66,10.59,1.00,23.60,27.85,30.50,4.76,28.59,1008.80,2024.06,1124.94,1539.26,1668.96,349.73,344.05,34.21,0000 0000 0000 0000 000000
2015-01-23 10:52:36,0.69,10.61,1.00,23.59,27.85,30.49,4.73,28.48,1008.80,2024.02,1122.88,1537.68,1667.35,349.56,343.89,34.24,0000 0000 0000 0000 000000
2015-01-23 10:57:37,0.64,10.63,1.00,23.63,27.85,30.49,4.71,28.45,1008.80,2024.05,1120.90,1536.21,1665.70,350.07,344.30,34.27,0000 0000 0000 0000 000000
2015-01-23 11:02:39,0.87,10.65,1.00,23.62,27.87,30.49,4.75,28.67,1008.69,2024.03,1118.42,1534.47,1663.71,350.00,344.58,34.30,0000 0000 0000 0000 000000
2015-01-23 11:07:40,1.58,10.69,1.00,23.59,27.87,30.51,4.75,28.37,1008.69,2024.02,1114.01,1531.24,1660.30,349.59,343.80,34.33,0000 0000 0000 0000 000000
2015-01-23 11:12:41,1.42,10.73,1.00,23.57,27.87,30.49,4.67,28.36,1008.73,2024.03,1109.70,1527.86,1656.73,349.42,343.58,34.36,0000 0000 0000 0000 000000
2015-01-23 11:17:42,1.19,10.77,1.00,23.56,27.87,30.51,4.71,28.54,1008.78,2024.01,1106.13,1525.05,1653.63,349.86,344.22,34.39,0000 0000 0000 0000 000000
2015-01-23 11:22:43,0.90,10.80,1.00,23.59,27.87,30.50,4.77,28.49,1008.80,2024.01,1103.35,1522.87,1651.35,350.06,344.30,34.42,0000 0000 0000 0000 000000
2015-01-23 11:27:45,0.95,10.82,1.00,23.59,27.87,30.51,4.81,28.55,1008.80,2024.01,1100.65,1520.75,1649.08,350.20,344.53,34.45,0000 0000 0000 0000 000000
2015-01-23 11:32:46,0.71,10.85,1.00,23.54,27.87,30.51,4.75,28.46,1008.80,2024.00,1098.42,1518.95,1647.24,350.43,344.49,34.48,0000 0000 0000 0000 000000
2015-01-23 11:37:47,0.54,10.87,1.00,23.60,27.87,30.52,4.69,28.54,1008.78,2024.00,1096.75,1517.74,1645.84,349.71,343.84,34.51,0000 0000 0000 0000 000000
2015-01-23 11:42:49,0.75,10.89,1.00,23.56,27.87,30.54,4.70,28.48,1008.79,2024.00,1094.61,1516.08,1644.08,350.05,344.44,34.54,0000 0000 0000 0000 000000
2015-01-23 11:47:50,0.74,10.91,1.00,23.62,27.87,30.51,4.75,28.38,1008.80,2024.00,1092.51,1514.44,1642.37,349.83,344.45,34.56,0000 0000 0000 0000 000000
2015-01-23 11:52:51,0.71,10.93,1.00,23.58,27.87,30.50,4.76,28.37,1008.80,2024.00,1090.43,1512.85,1640.68,350.43,344.64,34.59,0000 0000 0000 0000 000000
2015-01-23 11:57:52,0.33,10.95,1.00,23.60,27.87,30.52,4.73,28.40,1008.80,2024.00,1089.08,1511.99,1639.65,350.27,344.82,34.62,0000 0000 0000 0000 000000
2015-01-23 12:02:54,0.31,10.95,1.00,23.59,27.87,30.50,4.72,28.49,1008.80,2024.00,1088.43,1511.25,1638.99,349.57,344.01,34.65,0000 0000 0000 0000 000000
2015-01-23 12:07:55,0.15,10.96,1.00,23.56,27.87,30.53,4.72,28.56,1008.80,2024.00,1087.83,1510.88,1638.27,349.68,344.05,34.68,0000 0000 0000 0000 000000
2015-01-23 12:12:56,0.28,10.97,1.00,23.62,27.87,30.52,4.68,28.48,1008.80,2024.00,1087.05,1510.09,1637.80,349.85,344.02,34.71,0000 0000 0000 0000 000000
2015-01-23 12:17:58,0.29,10.97,1.00,23.59,27.87,30.50,4.70,28.38,1008.80,2024.00,1086.49,1509.62,1637.04,349.86,344.28,34.74,0000 0000 0000 0000 000000
2015-01-23 12:22:59,0.28,10.98,1.00,23.63,27.87,30.52,4.58,28.39,1008.76,2024.00,1085.65,1508.90,1636.33,349.24,343.74,34.77,0000 0000 0000 0000 000000
2015-01-23 12:28:00,0.33,10.99,0.63,23.59,27.87,30.52,4.69,28.42,1008.75,2024.00,1084.74,1508.05,1635.54,349.05,343.81,34.80,0000 0000 0000 0000 000000
2015-01-23 12:33:02,0.47,11.00,0.00,23.55,27.87,30.53,4.74,28.45,1008.74,2024.00,1083.50,1507.14,1634.41,349.80,343.98,34.83,0000 0000 0000 0000 000000
2015-01-23 12:38:02,0.47,11.02,0.00,23.58,27.87,30.52,4.71,28.53,1008.73,2024.00,1082.05,1506.05,1633.24,349.41,343.71,34.86,0000 0000 0000 0000 000000
2015-01-23 12:43:04,0.50,11.03,0.00,23.57,27.87,30.52,4.71,28.34,1008.78,2024.00,1080.64,1504.95,1632.05,349.65,343.97,34.89,0000 0000 0000 0000 000000
2015-01-23 12:48:05,0.41,11.05,0.00,23.55,27.87,30.53,4.77,28.47,1008.80,2024.00,1079.43,1504.04,1631.04,350.40,344.76,34.92,0000 0000 0000 0000 000000
2015-01-23 12:53:07,0.38,11.06,0.00,23.62,27.87,30.53,4.79,28.50,1008.80,2024.00,1078.44,1503.21,1630.12,349.99,344.11,34.95,0000 0000 0000 0000 000000
2015-01-23 12:58:08,0.42,10.33,0.00,23.58,27.87,30.54,4.22,25.49,1008.79,2024.34,1236.01,1624.20,1761.64,313.35,308.24,0.00,0000 0000 0000 0000 000002
2015-01-23 13:03:09,0.73,0.00,0.00,23.58,27.90,30.50,4.68,27.29,1008.76,2029.52,3447.10,3324.86,3610.04,349.47,343.85,0.01,0000 0000 0000 0000 000000